Location: Kershaw
(34.5481°N, 80.5823°W)
Time: 14:58:19
(UTC+00:00)

Vanguard 1 Rocket - Pass Details

Date: 05 October 2022
Orbit: 650 x 4225 km, 34.3° (Epoch: 08 December)

Event Time Altitude Azimuth Distance (km) Brightness Sun altitude
Rises 02:48:24 0° 267° (W) 7,811 12.7 -45.5°
Reaches altitude 10° 02:54:25 10° 268° (W) 6,334 12.0 -46.6°
Enters shadow 03:09:02 60° 269° (W) 2,511 9.4 -48.9°
Maximum altitude 03:12:18 89° 178° (S) 1,994 - -49.5°
Drops below altitude 10° 03:20:57 10° 92° (E) 3,312 - -50.8°
Sets 03:23:07 0° 93° (E) 4,006 - -51.1°
